Погода в Семено-Александровке

Россия / Воронежская область     51°02′27″N   40°12′53″E
темп.,
°C
ветер,
м/с
пор.,
м/с
влажн.,
%
обл.,
%
осадки,
мм/ч
давл.,
гПа
погр.,
м
10 мая, пн
пн1000:00+6ссз61184100 0.1 10171177
03:00+6ссз61086100 0.3 10181056
06:00+6ссз71280100 0.0 1018908
09:00+6ссз81381100 0.0 1017834
12:00+7ссз81585100 0.3 1017746
15:00+7с101893100 2.1 1014815
18:00+8ссв102094100 3.3 1012632
21:00+10ссв101894100 3.5 1014601
11 мая, вт
вт1100:00+11ссв81596100 0.5 1014652
03:00+11св61497100 0.8 1014593
06:00+7в4994100 2.9 1016623
09:00+10в6976100 3.2 10181099
12:00+11в61168100 0.1 10201656
15:00+12в8126898 0.5 10201697
18:00+10юв8127798 0.5 10231258
21:00+6всв3109243 0.5 1024231
12 мая, ср
ср1200:00+7всв51287100 0.0 1024308
03:00+8всв61480100 0.0 1023345
06:00+9всв51280100 0.0 1022351
09:00+11всв577682 0.1 1021430
12:00+14вюв6867100 1.7 10201416
15:00+17вюв6955100 2.3 10181763
18:00+15ююв596987 0.6 1019553
21:00+11ю118551 0.6 101910
13 мая, чт
чт1300:00+11в338285 0.0 101948
03:00+9в338861 0.0 101837
06:00+11вюв22821 0.0 101855
09:00+17в226180 0.0 1018525
12:00+21юв114927 0.0 10171329
15:00+22юв224553 0.0 10171612
18:00+22вюв235959 0.0 1017206
21:00+16вюв368652 0.0 101782
14 мая, пт
пт1400:00+15вюв3584100 0.0 101768
03:00+14вюв368739 0.0 1017100
06:00+15вюв3884100 0.0 1017164
09:00+22юв586699 0.0 1016538
12:00+25юв675044 0.0 10151370
15:00+27ююв6845100 0.0 10141537
18:00+25ююв486399 0.0 1013311
21:00+20юв5128094 0.0 1013215